{"data":{"norad_id":68153,"epoch":"2026-09-19T23:45:07.202016Z","epoch_age_seconds":100177,"freshness":"FRESH","line1":"1 68153U 26049M   26262.98966669  .00014038  00000+0  43626-3 0  9990","line2":"2 68153  97.2861 282.9656 0001909  88.0907 272.0554 15.33450441 29429","mean_motion":15.33450441,"eccentricity":0.0001909,"inclination_deg":97.2861,"raan_deg":282.9656,"arg_perigee_deg":88.0907,"mean_anomaly_deg":272.0554,"bstar":0.00043626,"rev_number":2942,"period_min":93.905871458157,"perigee_km":464.22053048315,"apogee_km":466.83344139298,"semimajor_km":6843.6639859381,"source":"CELESTRAK","updated_at":"2026-09-20T09:00:43.793982Z"}}